Location: Austin
(30.3000°N, 97.7500°W)
Time: 06:02:15
(UTC-05:00)

SeaSat 1 - Pass Details

Date: 16 June 2025
Orbit: 738 x 740 km, 108.0° (Epoch: 07 July)

Event Time Altitude Azimuth Distance (km) Brightness Sun altitude
Exits shadow 02:10:29 26° 343° (NNW) 1,437 4.3 -35.5°
Drops below altitude 10° 02:12:34 10° 340° (NNW) 2,248 5.5 -35.5°
Sets 02:14:49 0° 339° (NNW) 3,174 6.4 -35.4°
